{"data":{"norad_id":56457,"epoch":"2026-09-20T13:10:42.992544Z","epoch_age_seconds":107739,"freshness":"FRESH","line1":"1 56457U 23064K   26263.54910871  .00000172  00000+0  22204-4 0  9999","line2":"2 56457  70.0013  13.1651 0003219 266.0884  93.9907 14.98343008184433","mean_motion":14.98343008,"eccentricity":0.0003219,"inclination_deg":70.0013,"raan_deg":13.1651,"arg_perigee_deg":266.0884,"mean_anomaly_deg":93.9907,"bstar":2.2204e-5,"rev_number":18443,"period_min":96.10616476411,"perigee_km":569.77841092559,"apogee_km":574.25291921136,"semimajor_km":6950.1526650685,"source":"CELESTRAK","updated_at":"2026-09-21T09:00:33.442712Z"}}